Regional Weather Roundup
Issued by NWS

Home | Current Version | Previous Version | Text Only | Print | Product List | Glossary Off
Versions: 1 2 3 4 5 6 7 8 9 10 11 12 13 14 15 16 17 18 19 20 21 22 23 24 25 26 27 28 29 30 31 32 33 34 35 36 37 38 39 40 41 42 43 44 45 46 47 48 49 50

000
ASUS43 KIND 280309
RWRIN

WEATHER ROUNDUP FOR INDIANA
NATIONAL WEATHER SERVICE INDIANAPOLIS IN
1100 PM EDT FRI MAY 27 2016

NOTE: "FAIR" INDICATES FEW OR NO CLOUDS BELOW 12,000 FEET WITH NO
SIGNIFICANT WEATHER AND/OR OBSTRUCTIONS TO VISIBILITY.

* - STATION DOES NOT REPORT WEATHER SUCH AS PRECIPITATION OR FOG.

+ - STATION NOT QUALITY CONTROLLED BY THE NATIONAL WEATHER SERVICE.
    USE DATA WITH CAUTION...ESPECIALLY DEWPOINT AND RELATIVE
    HUMIDITY OBSERVATIONS.

INZ001>003-010>013-019-020-280400-
NORTHWEST INDIANA

CITY           SKY/WX    TMP DP  RH WIND       PRES   REMARKS
GARY /AIRPORT/ MOCLDY    72  72 100 S12       29.90R
KNOX *+        CLOUDY    72  61  68 SW9       29.94R
LA PORTE +     CLOUDY    72  72 100 SW13      29.94R
MICHIGAN CITY+ CLOUDY    70  70 100 S7        29.93R
MONTICELLO +   CLOUDY    74  62  66 S5        29.93R
RENSSELAER +   MOCLDY    70  66  88 S16       29.94R
VALPARAISO     CLOUDY    70  65  84 S14G23    29.93R

$$

LMZ046-743>745-280400-
SOUTHERN LAKE MICHIGAN

STATION/POSITION TIME  TEMP    WIND        PRES    WAVE
                       AIR SEA DIR/SP/G            HT
                 (UTC) (F)     (DEG/KT/KT) (MB)    (FT)
BURNS HARBOR     0300   71     180/ 14/ 22 1012.9R
MICHIGAN CITY    0200   72     180/ 11/ 12   N/A
5NW MICH CITY    0300   68 59  200/ 16/ 23   N/A     1

$$

INZ004-005-014>016-021>024-280400-
NORTH CENTRAL INDIANA

CITY           SKY/WX    TMP DP  RH WIND       PRES   REMARKS
GOSHEN         CLOUDY    75  57  53 S7        29.94R
LOGANSPORT +   CLOUDY    77  57  50 S8        29.95R
PERU/GRISSOM   CLOUDY    75  59  57 S6        29.94R
ROCHESTER +    PTCLDY    77  59  53 S5        29.95R
SOUTH BEND     CLOUDY    71  66  84 SW8       29.94R
WARSAW +       CLOUDY    77  57  50 CALM      29.95R

$$

INZ006>009-017-018-025>027-280400-
NORTHEAST INDIANA

CITY           SKY/WX    TMP DP  RH WIND       PRES   REMARKS
ANGOLA *+        N/A     75  68  78 S5        29.97R
AUBURN +       PTCLDY    77  55  47 CALM      29.98R
FORT WAYNE     MOCLDY    75  60  59 S10       29.97R
HUNTINGTON +   CLEAR    N/A N/A N/A S3        29.97R

$$

INZ028-029-035-036-043>045-051>053-280400-
WEST CENTRAL INDIANA

CITY           SKY/WX    TMP DP  RH WIND       PRES   REMARKS
CRAWFORDSVL +  CLOUDY    71  61  70 S5        29.94S
GREENCASTLE +  CLOUDY    70  64  83 S5        29.96R
LAFAYETTE      CLOUDY    72  65  78 W5        29.94R
TERRE HAUTE    CLOUDY    72  66  81 CALM      29.93R

$$

INZ030>032-037>040-046>048-054>057-064-065-280400-
CENTRAL INDIANA

CITY           SKY/WX    TMP DP  RH WIND       PRES   REMARKS
CP ATTERBURY + CLOUDY    70  61  73 S3        29.99R
FRANKFORT +      N/A     76  49  38 CALM      29.97R
GREENWOOD *+   CLOUDY    75  61  60 S6        29.99R
INDIANAPOLIS   CLOUDY    75  61  61 SE10      29.96R
-EAGLE CREEK   CLOUDY    78  60  53 S6        29.96R
KOKOMO *+      CLOUDY    75  59  57 S8        29.96R
MARION +       CLEAR     73  58  59 S6        29.98R
SHELBYVILLE    CLEAR     78  63  59 S6        29.98R
ZIONSVILLE +   CLOUDY    76  60  58 S8        29.97R

$$

INZ033-034-041-042-049-050-058-059-280400-
EAST CENTRAL INDIANA

CITY           SKY/WX    TMP DP  RH WIND       PRES   REMARKS
MUNCIE         CLEAR     78  62  57 S6        29.99R

$$

INZ060-061-067>069-081>083-085>088-280400-
SOUTHWEST INDIANA

CITY           SKY/WX    TMP DP  RH WIND       PRES   REMARKS
EVANSVILLE     PTCLDY    77  62  59 SE5       29.94R
HUNTINGBURG *+ CLOUDY    73  64  73 SE6       29.96R
WASHINGTON +   CLOUDY    73  65  74 S3        29.94R

$$

INZ062-063-066-070>080-084-089>092-280400-
SOUTH CENTRAL AND SOUTHEAST INDIANA

CITY           SKY/WX    TMP DP  RH WIND       PRES   REMARKS
BEDFORD +      CLOUDY    75  70  83 SE5       29.97R
BLOOMINGTON    CLOUDY    76  61  59 SE7       29.97R
MADISON *+     CLEAR     70  64  83 E5        30.03R
NORTH VERNON + CLEAR     73  72  94 CALM      30.00R
SEYMOUR +      PTCLDY    75  64  69 CALM      29.98R

$$





USA.gov is the U.S. government's official web portal to all federal, state and local government web resources and services.